Weather History for Winslow, AZ

Change the Weather History Date:

Wednesday, November 7, 2012

  Actual Average Record
Temperature  
Mean Temperature 56 °F 48 °F  
Max Temperature 78 °F 64 °F 79 °F (1980)
Min Temperature 33 °F 31 °F 10 °F (1938)
Degree Days  
Heating Degree Days 9 17  
Month to date heating degree days 85 113  
Since 1 July heating degree days 309 419  
Cooling Degree Days 0 0  
Month to date cooling degree days 0 0  
Year to date cooling degree days 1442 1208  
Growing Degree Days 6 (Base 50)    
Moisture  
Dew Point 18 °F    
Average Humidity 28    
Maximum Humidity 44    
Minimum Humidity 11    
Precipitation  
Precipitation 0.00 in 0.02 in 0.13 in (1937)
Month to date precipitation 0.00 0.13  
Year to date precipitation 4.87 6.07  
Sea Level Pressure  
Sea Level Pressure 30.09 in    
Wind  
Wind Speed 5 mph (SE)    
Max Wind Speed 12 mph    
Max Gust Speed 15 mph    
Visibility 10 miles    
Events      
T = Trace of Precipitation, MM = Missing Value Source: NWS Daily Summary

Daily Weather History Graph

Daily Weather History Graph

Search for Another Location

Airport:

Trip Planner

Search our weather history database for the weather conditions in past years. The results will help you decide how hot, cold, wet, or windy it might be!

Date:

Astronomy

Nov. 07, 2012 Rise Set
Actual Time 6:50 AM MST 5:22 PM MST
Civil Twilight 6:23 AM MST 5:49 PM MST
Nautical Twilight 5:53 AM MST 6:19 PM MST
Astronomical Twilight 5:23 AM MST 6:49 PM MST
Moon 12:03 AM MST (11/7) 1:19 PM MST (11/7)
Length of Visible Light 11h 25m
Length of Day
10h 32m
Last Quarter, 42% of the Moon is Illuminated
Nov 7
Last Quarter
Nov 13
New
Nov 20
First Quarter
Nov 28
Full
Dec 6
Last Quarter

Hourly Weather History & Observations

Time (MST) Temp. Windchill Dew Point Humidity Pressure Visibility Wind Dir Wind Speed Gust Speed Precip Events Conditions
12:56 AM 36.0 °F 33.3 °F 14.0 °F 41% 30.18 in 10.0 mi SE 3.5 mph - N/A   Clear
1:56 AM 36.0 °F 33.3 °F 15.1 °F 43% 30.18 in 10.0 mi ESE 3.5 mph - N/A   Clear
2:56 AM 35.1 °F 30.1 °F 15.1 °F 44% 30.17 in 10.0 mi ESE 5.8 mph - N/A   Clear
3:56 AM 37.0 °F 32.4 °F 15.1 °F 41% 30.15 in 10.0 mi SE 5.8 mph - N/A   Clear
4:56 AM 36.0 °F 32.1 °F 15.1 °F 43% 30.17 in 10.0 mi SSE 4.6 mph - N/A   Clear
5:56 AM 35.1 °F 30.1 °F 15.1 °F 44% 30.21 in 10.0 mi SE 5.8 mph - N/A   Clear
6:56 AM 33.1 °F 28.7 °F 12.9 °F 43% 30.25 in 10.0 mi ESE 4.6 mph - N/A   Clear
7:56 AM 39.0 °F 32.3 °F 14.0 °F 36% 30.25 in 10.0 mi SE 10.4 mph - N/A   Clear
8:56 AM 46.0 °F 41.4 °F 16.0 °F 30% 30.24 in 10.0 mi SE 9.2 mph - N/A   Clear
9:56 AM 52.0 °F - 16.0 °F 24% 30.20 in 10.0 mi ESE 8.1 mph - N/A   Clear
10:56 AM 59.0 °F - 18.0 °F 20% 30.16 in 10.0 mi East 5.8 mph - N/A   Clear
11:56 AM 66.0 °F - 19.0 °F 17% 30.10 in - North - - N/A   Clear
12:56 PM 72.0 °F - 21.0 °F 15% 30.04 in 10.0 mi East 5.8 mph - N/A   Clear
1:56 PM 75.0 °F - 21.0 °F 13% 29.99 in 10.0 mi ESE 3.5 mph - N/A   Clear
2:56 PM 77.0 °F - 19.9 °F 12% 29.97 in 10.0 mi East 4.6 mph - N/A   Clear
3:56 PM 77.0 °F - 19.0 °F 11% 29.95 in 10.0 mi Calm Calm - N/A   Clear
4:56 PM 75.0 °F - 19.0 °F 12% 29.95 in 10.0 mi Calm Calm - N/A   Clear
5:56 PM 64.9 °F - 17.1 °F 16% 30.00 in 10.0 mi SW 8.1 mph - N/A   Clear
6:56 PM 55.9 °F - 16.0 °F 21% 30.04 in 10.0 mi SW 8.1 mph - N/A   Clear
7:56 PM 53.1 °F - 19.0 °F 26% 30.04 in 10.0 mi SSW 6.9 mph - N/A   Clear
8:56 PM 51.1 °F - 19.9 °F 29% 30.03 in 10.0 mi SW 5.8 mph - N/A   Clear
9:56 PM 51.1 °F - 19.9 °F 29% 30.01 in 10.0 mi Calm Calm - N/A   Clear
10:56 PM 48.9 °F - 21.0 °F 33% 29.99 in 10.0 mi SSE 3.5 mph - N/A   Clear
11:56 PM 46.4 °F 45.2 °F 19.4 °F 34% 30.08 in 10.0 mi SE 3.5 mph - N/A   Clear